YD2CLX-14 Weather Reports


time (UTC)temp
C
wind
direction
speed
KPH
gust
KPH
rain 1hr
cm
rain 24hr
cm
rain mn
cm
humidity
%
barometer
mb
20260504223605 16 46 1.6 3.2 0.00 0.00 0.00 91 806.8
20260504223110 16 33 1.6 3.2 0.00 0.00 0.00 92 806.8
20260504222605 16 33 1.6 3.2 0.00 0.00 0.00 91 806.8
20260504222104 16 33 1.6 3.2 0.00 0.00 0.00 93 806.7
20260504221606 16 33 1.6 3.2 0.00 0.00 0.00 93 806.7
20260504221106 16 33 1.6 3.2 0.00 0.00 0.00 92 806.7
20260504220604 16 33 1.6 3.2 0.00 0.00 0.00 93 806.7
20260504220110 16 33 1.6 3.2 0.00 0.00 0.00 93 806.7
20260504215603 16 33 1.6 3.2 0.00 0.00 0.00 93 806.6
20260504215107 16 33 1.6 3.2 0.00 0.00 0.00 93 806.7
20260504214603 16 33 1.6 3.2 0.00 0.00 0.00 93 806.7
20260504214107 16 33 1.6 3.2 0.00 0.00 0.00 91 806.6
20260504213603 16 33 1.6 3.2 0.00 0.00 0.00 92 806.6
20260504213105 16 33 1.6 3.2 0.00 0.00 0.00 91 806.6
20260504212603 16 47 1.6 3.2 0.00 0.00 0.00 91 806.6
20260504212104 16 47 1.6 3.2 0.00 0.00 0.00 92 806.6
20260504211605 16 47 1.6 3.2 0.00 0.00 0.00 92 806.7
20260504211106 16 47 1.6 3.2 0.00 0.00 0.00 91 806.7
20260504210603 16 47 1.6 3.2 0.00 0.00 0.00 91 806.7
20260504210111 16 47 1.6 3.2 0.00 0.00 0.00 92 806.7
20260504205603 16 47 1.6 3.2 0.00 0.00 0.00 92 806.7
20260504205106 16 47 1.6 3.2 0.00 0.00 0.00 93 806.7
20260504204605 15 47 1.6 3.2 0.00 0.00 0.00 92 806.7
20260504204104 15 47 1.6 3.2 0.00 0.00 0.00 92 806.6
20260504203603 16 47 1.6 3.2 0.00 0.00 0.00 92 806.6
20260504203106 15 47 1.6 3.2 0.00 0.00 0.00 92 806.7
20260504202603 16 46 1.6 3.2 0.00 0.00 0.00 92 806.7
20260504202106 16 46 1.6 3.2 0.00 0.00 0.00 92 806.7
20260504201603 16 46 1.6 3.2 0.00 0.00 0.00 93 806.8
20260504201104 16 46 1.6 3.2 0.00 0.00 0.00 92 806.8
20260504200603 16 46 1.6 3.2 0.00 0.00 0.00 92 806.8
20260504200107 16 46 1.6 3.2 0.00 0.00 0.00 93 806.8
20260504195603 16 46 1.6 3.2 0.00 0.00 0.00 93 806.9
20260504195104 16 46 1.6 3.2 0.00 0.00 0.00 92 806.9
20260504194603 16 46 1.6 3.2 0.00 0.00 0.00 92 806.9
20260504194104 16 46 1.6 3.2 0.00 0.00 0.00 92 806.9
20260504193602 16 46 1.6 3.2 0.00 0.00 0.00 92 806.9
20260504193108 16 46 1.6 3.2 0.00 0.00 0.00 92 806.9
20260504192602 16 44 1.6 3.2 0.00 0.00 0.00 92 806.9
20260504192104 16 44 1.6 3.2 0.00 0.00 0.00 92 806.9
20260504191603 16 44 1.6 3.2 0.00 0.00 0.00 91 807.0
20260504191102 16 44 1.6 3.2 0.00 0.00 0.00 91 807.0
20260504190601 16 44 1.6 3.2 0.00 0.00 0.00 93 807.1
20260504190101 16 44 1.6 3.2 0.00 0.00 0.00 93 807.0
20260504185601 16 44 1.6 3.2 0.00 0.00 0.00 92 807.0
20260504185101 16 44 1.6 3.2 0.00 0.00 0.00 92 807.0
20260504184601 16 44 1.6 3.2 0.00 0.00 0.00 92 807.1
20260504184102 16 44 1.6 3.2 0.00 0.00 0.00 92 807.0
20260504183602 16 44 1.6 3.2 0.00 0.00 0.00 93 807.0
20260504183101 16 44 1.6 3.2 0.00 0.00 0.00 92 807.1
20260504182602 16 18 1.6 3.2 0.00 0.00 0.00 92 807.2
20260504182101 16 18 1.6 3.2 0.00 0.00 0.00 91 807.3
20260504181601 16 18 1.6 3.2 0.00 0.00 0.00 92 807.3
20260504181102 16 18 1.6 3.2 0.00 0.00 0.00 92 807.4
20260504180601 17 18 1.6 3.2 0.00 0.00 0.00 92 807.4
20260504175601 17 18 1.6 3.2 0.00 0.00 0.00 92 807.5
20260504175101 17 18 1.6 3.2 0.00 0.00 0.00 92 807.5
20260504174601 17 346 3.2 3.2 0.00 0.00 0.00 93 807.5
20260504174102 17 346 3.2 3.2 0.00 0.00 0.00 92 807.6
20260504173601 17 346 3.2 3.2 0.00 0.00 0.00 92 807.7
20260504173102 17 12 1.6 3.2 0.00 0.00 0.00 92 807.8
20260504172601 17 12 1.6 3.2 0.00 0.00 0.00 92 807.9
20260504172102 17 12 1.6 3.2 0.00 0.00 0.00 92 808.0
20260504171601 17 12 1.6 3.2 0.00 0.00 0.00 92 808.1
20260504171101 17 12 1.6 3.2 0.00 0.00 0.00 92 808.2
20260504170601 17 12 1.6 3.2 0.00 0.00 0.00 92 808.2
20260504151101 17 92 32.2 80.5 0.00 0.00 0.00 92 809.0
20260504150601 17 92 32.2 80.5 0.00 0.00 0.00 92 809.0
20260504141101 17 92 32.2 80.5 0.00 0.00 0.00 92 809.1
20260504140601 17 92 32.2 80.5 0.00 0.00 0.00 92 809.1
20260504130601 17 235 1.6 3.2 0.00 0.00 0.00 92 808.8
20260504130106 17 235 1.6 3.2 0.00 0.00 0.00 91 808.7
20260504120108 17 92 32.2 80.5 0.00 0.00 0.00 92 808.1
20260504110602 17 93 1.6 3.2 0.00 0.00 0.00 91 807.7
20260504110112 17 93 1.6 3.2 0.00 0.00 0.00 91 807.7
20260504100602 18 92 3.2 3.2 0.00 0.00 0.00 91 807.4
20260504100114 18 92 3.2 3.2 0.00 0.00 0.00 91 807.4
20260504090113 18 129 1.6 3.2 0.00 0.00 0.00 92 807.3
20260504081604 18 149 0.0 3.2 0.00 0.00 0.00 93 806.6
20260504081105 17 149 0.0 3.2 0.00 0.00 0.00 93 806.5
20260504080603 17 149 0.0 3.2 0.00 0.00 0.00 93 806.6
20260504080113 17 149 0.0 3.2 0.00 0.00 0.00 93 806.7
20260504070109 20 66 0.0 3.2 0.00 0.00 0.00 91 806.7
20260504060119 22 63 1.6 3.2 0.00 0.00 0.00 84 807.2
20260504050600 22 44 1.6 3.2 0.00 0.00 0.00 84 807.9
20260504050104 22 44 1.6 3.2 0.00 0.00 0.00 86 808.0
20260504045600 21 44 1.6 3.2 0.25 0.00 0.00 88 808.0
20260504045101 20 44 1.6 3.2 0.25 0.00 0.00 89 808.1
20260504044600 20 44 1.6 3.2 0.25 0.00 0.00 90 808.3
20260504044102 20 44 1.6 3.2 0.25 0.00 0.00 86 808.4
20260504043601 20 44 1.6 3.2 0.25 0.00 0.00 84 808.4
20260504043101 21 44 1.6 3.2 0.25 0.00 0.00 83 808.4
20260504042600 21 48 1.6 3.2 0.00 0.00 0.00 84 808.5
20260504042101 22 48 1.6 3.2 0.00 0.00 0.00 82 808.5
20260504041600 23 48 1.6 3.2 0.00 0.00 0.00 82 808.6
20260504041102 25 48 1.6 3.2 0.00 0.00 0.00 72 808.7
20260504040600 28 48 1.6 3.2 0.00 0.00 0.00 73 808.7
20260504040105 29 48 1.6 3.2 0.00 0.00 0.00 71 808.7
20260504035601 27 48 1.6 3.2 0.00 0.00 0.00 75 808.8
20260504035101 26 48 1.6 3.2 0.00 0.00 0.00 77 808.8
20260504034604 25 48 1.6 3.2 0.00 0.00 0.00 82 808.8
20260504034101 24 48 1.6 3.2 0.00 0.00 0.00 80 808.8
20260504033601 21 48 1.6 3.2 0.00 0.00 0.00 90 808.9
20260504033106 20 99 1.6 4.8 0.00 0.00 0.00 88 808.9
20260504032601 21 99 1.6 4.8 0.00 0.00 0.00 85 808.9
20260504032102 21 99 1.6 4.8 0.00 0.00 0.00 85 808.9
20260504031601 21 99 1.6 4.8 0.00 0.00 0.00 83 809.0
20260504031101 22 99 1.6 4.8 0.00 0.00 0.00 81 809.1
20260504030601 23 99 1.6 4.8 0.00 0.00 0.00 81 809.1
20260504030105 23 99 1.6 4.8 0.08 0.00 0.00 80 809.1
20260504025601 23 99 1.6 4.8 0.08 0.00 0.00 80 809.1
20260504025101 23 99 1.6 4.8 0.08 0.00 0.00 85 809.1
20260504024601 22 99 1.6 4.8 0.08 0.00 0.00 80 809.2
20260504024102 21 99 1.6 4.8 0.08 0.00 0.00 83 809.2
20260504023602 21 99 1.6 4.8 0.08 0.00 0.00 84 809.2
20260504023104 22 99 1.6 4.8 0.08 0.00 0.00 83 809.2
20260504022603 22 119 1.6 3.2 0.00 0.00 0.00 84 809.2
20260504022102 22 119 1.6 3.2 0.00 0.00 0.00 87 809.1
20260504021601 21 119 1.6 3.2 0.00 0.00 0.00 82 809.1
20260504021102 21 119 1.6 3.2 0.00 0.00 0.00 86 809.1
20260504020601 21 119 1.6 3.2 0.00 0.00 0.00 84 809.1
20260504020109 21 119 1.6 3.2 0.00 0.00 0.00 84 809.0
20260504015600 21 119 1.6 3.2 0.00 0.00 0.00 83 809.0
20260504015101 22 119 1.6 3.2 0.00 0.00 0.00 82 809.0
20260504014602 22 119 1.6 3.2 0.00 0.00 0.00 83 809.1
20260504014105 22 119 1.6 3.2 0.00 0.00 0.00 83 809.0
20260504013601 20 119 1.6 3.2 0.08 0.00 0.00 87 808.8
20260504013109 20 119 1.6 3.2 0.08 0.00 0.00 82 808.8
20260504012602 20 109 0.0 1.6 0.00 0.00 0.00 83 808.8
20260504012103 20 109 0.0 1.6 0.00 0.00 0.00 84 808.7
20260504011606 20 109 0.0 1.6 0.00 0.00 0.00 84 808.7
20260504011106 21 109 0.0 1.6 0.00 0.00 0.00 84 808.7
20260504010602 22 109 0.0 1.6 0.00 0.00 0.00 79 808.6
20260504010106 22 109 0.0 1.6 0.00 0.00 0.00 77 808.7
20260504005602 23 109 0.0 1.6 0.00 0.00 0.00 82 808.6
20260504005104 22 109 0.0 1.6 0.03 0.00 0.00 82 808.7
20260504004604 21 109 0.0 1.6 0.00 0.00 0.00 84 808.7
20260504004105 21 109 0.0 1.6 0.00 0.00 0.00 82 808.6
20260504003602 21 109 0.0 1.6 0.00 0.00 0.00 83 808.5
20260504003110 21 109 0.0 1.6 0.00 0.00 0.00 83 808.5
20260504002602 21 166 1.6 3.2 0.00 0.00 0.00 82 808.5
20260504002104 21 166 1.6 3.2 0.00 0.00 0.00 86 808.5
20260504001602 20 166 1.6 3.2 0.00 0.00 0.00 86 808.4
20260504001102 20 166 1.6 3.2 0.00 0.00 0.00 87 808.3
20260504000601 19 166 1.6 3.2 0.00 0.00 0.00 87 808.3
20260504000110 18 166 1.6 3.2 0.00 0.00 0.00 85 808.2
20260503235601 18 166 1.6 3.2 0.00 0.00 0.00 89 808.2
20260503235102 17 124 1.6 3.2 0.00 0.00 0.00 87 808.1
20260503234603 18 124 1.6 3.2 0.00 0.00 0.00 87 808.1
20260503234102 18 124 1.6 3.2 0.00 0.00 0.00 89 808.0
20260503233600 18 157 3.2 3.2 0.00 0.00 0.00 89 808.0
20260503233106 17 124 1.6 3.2 0.00 0.00 0.00 90 807.9
20260503232602 17 157 3.2 3.2 0.00 0.00 0.00 90 807.9
20260503232103 17 157 3.2 3.2 0.00 0.00 0.00 90 807.9
20260503231601 17 157 3.2 3.2 0.00 0.00 0.00 91 807.8
20260503231103 17 157 3.2 3.2 0.00 0.00 0.00 91 807.7
20260503230600 17 157 3.2 3.2 0.00 0.00 0.00 91 807.7
20260503230104 17 157 3.2 3.2 0.00 0.00 0.00 91 807.8
20260503225600 17 157 3.2 3.2 0.00 0.00 0.00 92 807.7
20260503225102 17 157 3.2 3.2 0.00 0.00 0.00 92 807.7
20260503224602 17 157 3.2 3.2 0.00 0.00 0.00 92 807.7
20260503224103 17 157 3.2 3.2 0.00 0.00 0.00 92 807.7